Orbital Elements at Epoch 2459000.5 (2020-May-31.0) TDB
Reference: JPL 18 (heliocentric ecliptic J2000)
Element | Value | Uncertainty (1-sigma) | Units |
e | .0913396585451681 | 4.5868e-08 | |
a | 2.54156141286337 | 2.5623e-08 | au |
q | 2.309416061240855 | 1.1857e-07 | au |
i | 14.17628995207313 | 5.2664e-06 | deg |
node | 112.5168139106476 | 2.456e-05 | deg |
peri | 22.7887346296559 | 4.4782e-05 | deg |
M | 150.5565847225286 | 4.1364e-05 | deg |
tp | 2458381.562789964889 (2018-Sep-20.06278996) | 0.00016543 | TDB |
period | 1479.957824649689 4.05 | 2.238e-05 6.127e-08 | d yr |
n | .2432501751090193 | 3.6785e-09 | deg/d |
Q | 2.773706764485885 | 2.7963e-08 | au |
|
| | Orbit Determination Parameters
Additional Information
|